QPF
0.02 0.02 0.02 0.01 0.01 0.01 0.02 0.01 0.02 0.02 0.03 0.02 0.03 0.02 0.02 0.02 0.03 0.03 0.03 0.03 0.02 0.02 0.03 0.02 0.02 0.03 0.03 0.04 0.04 0.03 0.04 0.04 0.04 0.04 0.03 0.03 0.03 0.03 0.02 0.01 0.01 0.01 0.02
0.02 0.02 0.03 0.02 0.01 0.01 0.02 0.01 0.01 0.02 0.02 0.02 0.02 0.03 0.02 0.02 0.03 0.05 0.05 0.03 0.02 0.02 0.02 0.03 0.02 0.02 0.02 0.03 0.03 0.03 0.03 0.03 0.04 0.06 0.06 0.04 0.03 0.03 0.02 0.02 0.02 0.02 0.03
0.01 0.01 0.02 0.02 0.02 0.01 0.02 0.01 0.01 0.01 0.02 0.02 0.02 0.02 0.02 0.02 0.03 0.05 0.05 0.04 0.02 0.02 0.03 0.03 0.02 0.02 0.02 0.02 0.03 0.03 0.03 0.04 0.04 0.05 0.06 0.05 0.05 0.03 0.03 0.03 0.03 0.04 0.04
0.00 0.00 0.00 0.01 0.01 0.01 0.01 0.02 0.01 0.01 0.02 0.02 0.03 0.02 0.02 0.02 0.03 0.03 0.02 0.03 0.02 0.02 0.02 0.03 0.03 0.03 0.02 0.02 0.03 0.03 0.04 0.05 0.04 0.04 0.04 0.04 0.05 0.04 0.04 0.03 0.03 0.03 0.03
0.00 0.00 0.00 0.00 0.01 0.01 0.01 0.01 0.01 0.01 0.02 0.02 0.02 0.02 0.02 0.02 0.02 0.02 0.02 0.03 0.02 0.02 0.02 0.02 0.03 0.03 0.02 0.03 0.03 0.04 0.05 0.05 0.05 0.05 0.05 0.05 0.05 0.05 0.04 0.03 0.02 0.03 0.03
0.01 0.00 0.01 0.01 0.02 0.02 0.01 0.01 0.02 0.01 0.01 0.01 0.02 0.02 0.02 0.02 0.02 0.03 0.03 0.03 0.03 0.03 0.03 0.03 0.05 0.04 0.04 0.04 0.04 0.04 0.05 0.04 0.04 0.05 0.05 0.05 0.04 0.04 0.03 0.02 0.02 0.03 0.03
0.01 0.01 0.01 0.01 0.01 0.01 0.01 0.01 0.01 0.02 0.02 0.01 0.02 0.02 0.03 0.03 0.03 0.03 0.03 0.03 0.04 0.03 0.03 0.03 0.05 0.04 0.03 0.03 0.04 0.04 0.04 0.03 0.04 0.05 0.04 0.03 0.02 0.02 0.02 0.02 0.01 0.01 0.01
0.00 0.01 0.01 0.01 0.01 0.00 0.00 0.00 0.01 0.02 0.02 0.02 0.02 0.03 0.03 0.02 0.02 0.03 0.02 0.03 0.03 0.03 0.02 0.03 0.03 0.03 0.04 0.04 0.04 0.03 0.03 0.03 0.03 0.03 0.04 0.02 0.01 0.01 0.01 0.01 0.02 0.02 0.01
0.00 0.00 0.01 0.01 0.01 0.00 0.00 0.00 0.01 0.02 0.03 0.05 0.05 0.03 0.02 0.02 0.03 0.03 0.03 0.02 0.02 0.02 0.03 0.03 0.04 0.06 0.08 0.08 0.06 0.04 0.03 0.03 0.03 0.03 0.03 0.03 0.02 0.02 0.02 0.02 0.02 0.02 0.02
0.00 0.00 0.00 0.00 0.01 0.01 0.01 0.01 0.02 0.03 0.03 0.06 0.07 0.04 0.03 0.02 0.02 0.02 0.03 0.02 0.01 0.01 0.02 0.03 0.03 0.05 0.06 0.06 0.06 0.03 0.02 0.02 0.03 0.03 0.03 0.03 0.02 0.03 0.03 0.02 0.03 0.03 0.02
0.00 0.00 0.00 0.00 0.00 0.01 0.01 0.02 0.03 0.03 0.04 0.04 0.04 0.04 0.03 0.02 0.02 0.02 0.02 0.02 0.02 0.02 0.02 0.02 0.03 0.06 0.08 0.07 0.05 0.03 0.02 0.02 0.03 0.03 0.03 0.03 0.03 0.03 0.02 0.03 0.03 0.02 0.02
0.00 0.00 0.00 0.00 0.00 0.00 0.01 0.01 0.02 0.02 0.02 0.01 0.01 0.02 0.02 0.02 0.03 0.02 0.02 0.02 0.03 0.02 0.02 0.02 0.03 0.05 0.05 0.06 0.05 0.04 0.03 0.04 0.04 0.04 0.04 0.03 0.03 0.02 0.03 0.05 0.05 0.02 0.02
0.00 0.00 0.00 0.00 0.00 0.00 0.01 0.02 0.02 0.01 0.01 0.01 0.01 0.01 0.01 0.01 0.01 0.02 0.02 0.02 0.03 0.02 0.02 0.02 0.02 0.02 0.03 0.04 0.05 0.05 0.04 0.04 0.03 0.03 0.04 0.03 0.03 0.04 0.06 0.07 0.05 0.02 0.02
0.00 0.00 0.00 0.00 0.01 0.01 0.01 0.02 0.02 0.01 0.01 0.01 0.02 0.02 0.03 0.03 0.03 0.02 0.02 0.02 0.02 0.02 0.02 0.02 0.02 0.02 0.02 0.02 0.03 0.04 0.05 0.04 0.03 0.04 0.04 0.03 0.04 0.05 0.05 0.05 0.03 0.02 0.02
0.00 0.00 0.00 0.01 0.01 0.01 0.01 0.01 0.01 0.01 0.01 0.02 0.03 0.05 0.06 0.06 0.04 0.03 0.02 0.02 0.02 0.02 0.02 0.02 0.02 0.01 0.02 0.02 0.03 0.04 0.04 0.04 0.05 0.05 0.04 0.04 0.05 0.04 0.03 0.02 0.02 0.02 0.02
0.00 0.01 0.01 0.01 0.02 0.02 0.01 0.01 0.01 0.01 0.01 0.02 0.02 0.03 0.04 0.03 0.03 0.03 0.03 0.03 0.03 0.03 0.02 0.01 0.02 0.01 0.02 0.03 0.02 0.02 0.03 0.04 0.04 0.04 0.04 0.04 0.04 0.02 0.02 0.01 0.02 0.02 0.02
0.01 0.02 0.01 0.01 0.01 0.01 0.01 0.01 0.01 0.01 0.01 0.01 0.02 0.04 0.04 0.04 0.03 0.03 0.04 0.04 0.04 0.03 0.03 0.02 0.03 0.03 0.02 0.03 0.01 0.02 0.02 0.02 0.03 0.03 0.03 0.03 0.04 0.04 0.04 0.02 0.01 0.01 0.01
0.01 0.02 0.01 0.01 0.01 0.00 0.00 0.01 0.01 0.01 0.01 0.02 0.03 0.04 0.03 0.03 0.03 0.03 0.03 0.04 0.04 0.04 0.04 0.03 0.03 0.02 0.02 0.02 0.01 0.02 0.03 0.02 0.02 0.02 0.03 0.04 0.06 0.05 0.03 0.02 0.02 0.02 0.01
0.01 0.01 0.01 0.01 0.00 0.01 0.00 0.00 0.01 0.01 0.02 0.02 0.02 0.02 0.02 0.02 0.02 0.02 0.02 0.01 0.02 0.03 0.03 0.03 0.03 0.02 0.02 0.02 0.02 0.02 0.02 0.02 0.02 0.02 0.03 0.03 0.04 0.04 0.04 0.04 0.03 0.02 0.01
0.01 0.01 0.01 0.01 0.01 0.01 0.01 0.01 0.01 0.01 0.02 0.02 0.01 0.01 0.02 0.02 0.02 0.02 0.02 0.01 0.01 0.02 0.02 0.02 0.03 0.03 0.03 0.03 0.02 0.02 0.01 0.02 0.02 0.01 0.02 0.02 0.02 0.03 0.03 0.04 0.03 0.03 0.02
0.00 0.01 0.01 0.01 0.01 0.01 0.02 0.02 0.02 0.02 0.01 0.02 0.02 0.02 0.02 0.02 0.03 0.03 0.03 0.02 0.01 0.02 0.02 0.02 0.04 0.04 0.04 0.04 0.02 0.02 0.02 0.01 0.02 0.02 0.02 0.02 0.02 0.03 0.03 0.04 0.05 0.06 0.06
0.01 0.01 0.01 0.01 0.01 0.02 0.02 0.02 0.02 0.02 0.01 0.01 0.02 0.02 0.03 0.03 0.04 0.04 0.03 0.02 0.02 0.02 0.03 0.04 0.04 0.04 0.03 0.02 0.02 0.02 0.02 0.03 0.03 0.02 0.02 0.02 0.03 0.05 0.06 0.04 0.04 0.06 0.06
0.01 0.01 0.02 0.02 0.02 0.02 0.02 0.02 0.01 0.01 0.01 0.01 0.01 0.02 0.02 0.02 0.02 0.03 0.02 0.02 0.02 0.03 0.04 0.04 0.05 0.04 0.03 0.02 0.01 0.01 0.02 0.03 0.03 0.02 0.02 0.02 0.03 0.04 0.05 0.04 0.04 0.05 0.05
0.01 0.02 0.02 0.02 0.03 0.03 0.02 0.02 0.02 0.02 0.02 0.01 0.01 0.01 0.01 0.01 0.01 0.02 0.02 0.02 0.02 0.02 0.03 0.03 0.03 0.03 0.03 0.02 0.01 0.01 0.01 0.02 0.02 0.02 0.02 0.03 0.05 0.04 0.02 0.03 0.04 0.06 0.06
0.02 0.02 0.03 0.03 0.03 0.03 0.04 0.05 0.04 0.03 0.02 0.01 0.01 0.01 0.01 0.01 0.01 0.01 0.02 0.03 0.03 0.03 0.04 0.03 0.03 0.03 0.03 0.03 0.02 0.01 0.02 0.02 0.04 0.02 0.02 0.03 0.05 0.04 0.03 0.03 0.04 0.05 0.06
0.01 0.02 0.03 0.03 0.03 0.04 0.04 0.03 0.02 0.01 0.02 0.02 0.01 0.01 0.01 0.01 0.01 0.02 0.03 0.05 0.05 0.05 0.04 0.04 0.04 0.03 0.04 0.04 0.02 0.02 0.02 0.03 0.04 0.03 0.03 0.03 0.03 0.03 0.03 0.02 0.02 0.03 0.04
MSLP
1011.95 1012.15 1012.28 1012.35 1012.37 1012.37 1012.40 1012.48 1012.61 1012.80 1013.02 1013.25 1013.45 1013.61 1013.73 1013.81 1013.86 1013.92 1014.01 1014.14 1014.30 1014.49 1014.70 1014.90 1015.09 1015.25 1015.38 1015.49 1015.58 1015.67 1015.77 1015.88 1015.99 1016.11 1016.23 1016.35 1016.48 1016.62 1016.77 1016.93 1017.10 1017.27 1017.44
1011.57 1011.85 1012.06 1012.21 1012.32 1012.41 1012.52 1012.67 1012.88 1013.15 1013.44 1013.72 1013.98 1014.17 1014.29 1014.36 1014.38 1014.38 1014.40 1014.45 1014.55 1014.67 1014.82 1014.96 1015.08 1015.18 1015.24 1015.28 1015.30 1015.34 1015.40 1015.50 1015.65 1015.83 1016.06 1016.32 1016.59 1016.88 1017.17 1017.45 1017.72 1017.96 1018.17
1011.15 1011.48 1011.76 1011.98 1012.16 1012.33 1012.52 1012.75 1013.05 1013.40 1013.78 1014.15 1014.47 1014.71 1014.87 1014.93 1014.93 1014.89 1014.85 1014.83 1014.86 1014.92 1015.01 1015.11 1015.19 1015.23 1015.24 1015.22 1015.18 1015.16 1015.17 1015.25 1015.39 1015.62 1015.92 1016.27 1016.67 1017.10 1017.52 1017.93 1018.31 1018.65 1018.92
1010.80 1011.15 1011.47 1011.74 1011.97 1012.19 1012.43 1012.73 1013.09 1013.52 1013.98 1014.43 1014.83 1015.14 1015.34 1015.43 1015.42 1015.36 1015.29 1015.23 1015.22 1015.25 1015.31 1015.38 1015.43 1015.45 1015.42 1015.36 1015.27 1015.19 1015.14 1015.17 1015.30 1015.52 1015.84 1016.25 1016.73 1017.25 1017.78 1018.30 1018.79 1019.22 1019.57
1010.61 1010.97 1011.31 1011.59 1011.83 1012.07 1012.33 1012.65 1013.05 1013.53 1014.04 1014.56 1015.03 1015.41 1015.66 1015.79 1015.81 1015.76 1015.69 1015.62 1015.60 1015.62 1015.67 1015.74 1015.80 1015.81 1015.78 1015.68 1015.56 1015.42 1015.32 1015.29 1015.35 1015.54 1015.84 1016.25 1016.75 1017.31 1017.91 1018.51 1019.08 1019.59 1020.02
1010.65 1011.02 1011.34 1011.62 1011.84 1012.05 1012.29 1012.59 1012.98 1013.46 1014.00 1014.56 1015.08 1015.51 1015.82 1016.00 1016.07 1016.05 1016.01 1015.97 1015.96 1016.00 1016.08 1016.17 1016.25 1016.28 1016.24 1016.14 1015.99 1015.81 1015.65 1015.55 1015.54 1015.65 1015.90 1016.26 1016.74 1017.29 1017.90 1018.53 1019.15 1019.72 1020.22
1010.94 1011.30 1011.61 1011.86 1012.04 1012.20 1012.38 1012.62 1012.97 1013.41 1013.93 1014.49 1015.03 1015.50 1015.86 1016.09 1016.21 1016.26 1016.26 1016.26 1016.29 1016.37 1016.48 1016.61 1016.71 1016.77 1016.75 1016.65 1016.48 1016.27 1016.06 1015.90 1015.82 1015.85 1016.01 1016.30 1016.71 1017.21 1017.79 1018.41 1019.03 1019.62 1020.17
1011.40 1011.77 1012.08 1012.29 1012.43 1012.52 1012.62 1012.78 1013.05 1013.43 1013.90 1014.43 1014.96 1015.44 1015.84 1016.12 1016.30 1016.41 1016.46 1016.52 1016.60 1016.71 1016.86 1017.01 1017.15 1017.22 1017.22 1017.13 1016.96 1016.73 1016.49 1016.28 1016.14 1016.10 1016.18 1016.38 1016.71 1017.13 1017.64 1018.21 1018.79 1019.38 1019.94
1011.93 1012.33 1012.64 1012.84 1012.93 1012.97 1012.99 1013.07 1013.25 1013.55 1013.95 1014.43 1014.94 1015.42 1015.83 1016.16 1016.39 1016.54 1016.66 1016.76 1016.88 1017.02 1017.19 1017.37 1017.51 1017.60 1017.61 1017.54 1017.38 1017.16 1016.91 1016.68 1016.50 1016.41 1016.42 1016.55 1016.79 1017.13 1017.55 1018.04 1018.56 1019.10 1019.64
1012.41 1012.85 1013.18 1013.37 1013.45 1013.45 1013.42 1013.44 1013.54 1013.77 1014.11 1014.53 1015.00 1015.47 1015.89 1016.24 1016.51 1016.71 1016.87 1017.01 1017.16 1017.32 1017.50 1017.68 1017.82 1017.92 1017.94 1017.88 1017.74 1017.54 1017.31 1017.09 1016.91 1016.80 1016.78 1016.85 1017.02 1017.28 1017.61 1018.01 1018.45 1018.93 1019.41
1012.72 1013.20 1013.56 1013.77 1013.86 1013.85 1013.81 1013.80 1013.86 1014.04 1014.34 1014.72 1015.16 1015.62 1016.04 1016.41 1016.70 1016.94 1017.13 1017.29 1017.46 1017.63 1017.80 1017.97 1018.11 1018.20 1018.22 1018.18 1018.07 1017.91 1017.73 1017.55 1017.41 1017.31 1017.29 1017.33 1017.45 1017.64 1017.90 1018.21 1018.56 1018.96 1019.37
1012.77 1013.29 1013.69 1013.94 1014.06 1014.08 1014.06 1014.06 1014.13 1014.31 1014.58 1014.95 1015.38 1015.82 1016.25 1016.63 1016.95 1017.21 1017.42 1017.61 1017.78 1017.95 1018.12 1018.27 1018.40 1018.48 1018.52 1018.50 1018.43 1018.32 1018.20 1018.09 1018.00 1017.94 1017.94 1017.98 1018.08 1018.22 1018.41 1018.64 1018.91 1019.22 1019.57
1012.56 1013.11 1013.53 1013.83 1014.00 1014.08 1014.12 1014.18 1014.29 1014.50 1014.79 1015.17 1015.60 1016.05 1016.48 1016.88 1017.22 1017.50 1017.74 1017.95 1018.14 1018.31 1018.47 1018.62 1018.74 1018.82 1018.87 1018.87 1018.85 1018.80 1018.75 1018.70 1018.68 1018.68 1018.71 1018.77 1018.86 1018.97 1019.10 1019.27 1019.47 1019.71 1019.98
1012.11 1012.66 1013.12 1013.45 1013.69 1013.85 1013.98 1014.12 1014.31 1014.57 1014.92 1015.33 1015.78 1016.24 1016.69 1017.11 1017.47 1017.79 1018.06 1018.29 1018.50 1018.69 1018.86 1019.00 1019.13 1019.22 1019.28 1019.32 1019.33 1019.34 1019.36 1019.38 1019.42 1019.47 1019.54 1019.62 1019.71 1019.80 1019.90 1020.01 1020.15 1020.33 1020.54
1011.49 1012.04 1012.50 1012.88 1013.17 1013.42 1013.65 1013.89 1014.18 1014.53 1014.93 1015.39 1015.88 1016.37 1016.85 1017.29 1017.69 1018.03 1018.34 1018.61 1018.85 1019.07 1019.26 1019.42 1019.56 1019.67 1019.75 1019.82 1019.87 1019.93 1019.99 1020.07 1020.16 1020.26 1020.36 1020.46 1020.54 1020.62 1020.69 1020.76 1020.86 1020.98 1021.15
1010.79 1011.31 1011.78 1012.18 1012.54 1012.87 1013.20 1013.55 1013.94 1014.37 1014.85 1015.37 1015.90 1016.43 1016.93 1017.40 1017.83 1018.22 1018.57 1018.89 1019.18 1019.43 1019.65 1019.84 1020.00 1020.13 1020.24 1020.33 1020.42 1020.50 1020.61 1020.72 1020.85 1020.98 1021.10 1021.20 1021.29 1021.35 1021.40 1021.44 1021.50 1021.59 1021.72
1010.10 1010.59 1011.05 1011.48 1011.89 1012.29 1012.71 1013.15 1013.63 1014.15 1014.71 1015.27 1015.85 1016.41 1016.95 1017.45 1017.92 1018.35 1018.75 1019.12 1019.46 1019.76 1020.02 1020.24 1020.43 1020.58 1020.71 1020.81 1020.92 1021.03 1021.15 1021.29 1021.44 1021.58 1021.71 1021.82 1021.90 1021.95 1021.98 1022.00 1022.04 1022.10 1022.20
1009.47 1009.94 1010.39 1010.84 1011.29 1011.75 1012.24 1012.77 1013.32 1013.91 1014.52 1015.14 1015.75 1016.34 1016.91 1017.45 1017.97 1018.45 1018.90 1019.31 1019.70 1020.04 1020.35 1020.60 1020.81 1020.98 1021.12 1021.24 1021.36 1021.48 1021.61 1021.76 1021.91 1022.06 1022.20 1022.30 1022.38 1022.43 1022.45 1022.46 1022.47 1022.51 1022.59
1008.95 1009.41 1009.87 1010.33 1010.81 1011.31 1011.85 1012.43 1013.04 1013.67 1014.33 1014.98 1015.63 1016.25 1016.86 1017.44 1017.99 1018.52 1019.02 1019.49 1019.92 1020.31 1020.64 1020.92 1021.15 1021.33 1021.47 1021.60 1021.72 1021.84 1021.97 1022.12 1022.28 1022.44 1022.58 1022.70 1022.78 1022.83 1022.85 1022.85 1022.85 1022.87 1022.93
1008.56 1009.02 1009.48 1009.96 1010.45 1010.98 1011.55 1012.15 1012.79 1013.46 1014.14 1014.83 1015.50 1016.16 1016.81 1017.43 1018.03 1018.61 1019.16 1019.67 1020.14 1020.56 1020.92 1021.21 1021.45 1021.63 1021.78 1021.90 1022.01 1022.13 1022.27 1022.43 1022.59 1022.76 1022.92 1023.05 1023.14 1023.20 1023.23 1023.23 1023.23 1023.24 1023.27
1008.30 1008.77 1009.24 1009.72 1010.22 1010.75 1011.33 1011.94 1012.59 1013.27 1013.97 1014.67 1015.38 1016.08 1016.76 1017.43 1018.08 1018.71 1019.31 1019.86 1020.36 1020.81 1021.18 1021.49 1021.73 1021.91 1022.05 1022.16 1022.27 1022.39 1022.53 1022.69 1022.87 1023.06 1023.23 1023.39 1023.50 1023.58 1023.62 1023.64 1023.63 1023.63 1023.64
1008.16 1008.64 1009.11 1009.59 1010.08 1010.60 1011.16 1011.76 1012.41 1013.09 1013.79 1014.51 1015.25 1015.98 1016.71 1017.43 1018.14 1018.82 1019.46 1020.05 1020.59 1021.05 1021.44 1021.75 1021.99 1022.16 1022.29 1022.40 1022.51 1022.63 1022.77 1022.94 1023.14 1023.34 1023.54 1023.71 1023.86 1023.96 1024.02 1024.05 1024.05 1024.04 1024.04
1008.10 1008.59 1009.06 1009.52 1009.99 1010.49 1011.03 1011.60 1012.23 1012.89 1013.60 1014.33 1015.09 1015.86 1016.64 1017.41 1018.17 1018.90 1019.59 1020.22 1020.79 1021.27 1021.67 1021.98 1022.22 1022.39 1022.52 1022.63 1022.74 1022.86 1023.00 1023.18 1023.38 1023.59 1023.81 1024.00 1024.17 1024.29 1024.38 1024.42 1024.43 1024.42 1024.41
1008.09 1008.58 1009.04 1009.49 1009.94 1010.40 1010.90 1011.44 1012.04 1012.69 1013.38 1014.13 1014.91 1015.71 1016.53 1017.35 1018.16 1018.94 1019.67 1020.33 1020.93 1021.43 1021.84 1022.16 1022.41 1022.58 1022.72 1022.82 1022.93 1023.05 1023.19 1023.37 1023.57 1023.79 1024.00 1024.21 1024.38 1024.52 1024.62 1024.68 1024.70 1024.69 1024.68
1008.09 1008.58 1009.03 1009.46 1009.88 1010.31 1010.77 1011.28 1011.85 1012.47 1013.16 1013.90 1014.69 1015.52 1016.37 1017.23 1018.08 1018.89 1019.65 1020.35 1020.97 1021.49 1021.92 1022.26 1022.51 1022.70 1022.84 1022.96 1023.07 1023.19 1023.33 1023.49 1023.68 1023.89 1024.09 1024.28 1024.45 1024.59 1024.69 1024.76 1024.79 1024.80 1024.79
1008.08 1008.56 1009.00 1009.41 1009.81 1010.21 1010.65 1011.12 1011.66 1012.26 1012.94 1013.67 1014.47 1015.30 1016.17 1017.05 1017.92 1018.75 1019.54 1020.25 1020.89 1021.43 1021.88 1022.23 1022.51 1022.72 1022.88 1023.01 1023.12 1023.25 1023.38 1023.53 1023.69 1023.87 1024.04 1024.21 1024.36 1024.48 1024.58 1024.64 1024.68 1024.70 1024.70
Thickness
5814 5814 5812 5810 5808 5805 5801 5799 5797 5795 5793 5792 5790 5788 5787 5788 5787 5786 5783 5782 5781 5780 5780 5781 5778 5778 5776 5775 5775 5773 5771 5771 5772 5770 5768 5770 5772 5771 5769 5769 5768 5767 5764
5812 5810 5810 5809 5807 5803 5801 5799 5796 5795 5793 5791 5789 5787 5786 5787 5786 5785 5782 5781 5780 5779 5780 5777 5778 5777 5774 5773 5772 5771 5771 5772 5772 5768 5765 5762 5764 5766 5770 5768 5766 5766 5765
5812 5809 5808 5807 5806 5802 5800 5799 5796 5795 5792 5791 5790 5787 5785 5784 5784 5782 5781 5780 5779 5777 5776 5776 5776 5774 5775 5773 5771 5770 5769 5768 5770 5771 5766 5761 5758 5761 5765 5764 5764 5763 5762
5816 5813 5809 5806 5805 5803 5802 5799 5796 5794 5791 5790 5788 5785 5782 5780 5779 5780 5780 5778 5777 5776 5775 5774 5773 5773 5774 5770 5771 5771 5769 5766 5766 5768 5767 5766 5764 5758 5756 5760 5762 5761 5759
5817 5813 5811 5807 5806 5804 5802 5798 5794 5792 5790 5788 5786 5783 5782 5780 5780 5779 5777 5776 5775 5774 5773 5772 5771 5769 5770 5768 5767 5766 5766 5766 5765 5765 5764 5762 5761 5761 5755 5752 5754 5757 5758
5816 5813 5811 5808 5805 5804 5801 5797 5792 5788 5787 5785 5784 5781 5778 5776 5775 5773 5773 5773 5773 5773 5772 5770 5768 5767 5767 5765 5764 5764 5763 5762 5761 5761 5762 5760 5759 5757 5756 5752 5750 5750 5752
5813 5810 5807 5804 5802 5800 5799 5795 5790 5785 5785 5783 5781 5779 5777 5775 5772 5771 5771 5770 5770 5769 5768 5768 5765 5765 5763 5763 5762 5761 5760 5759 5757 5757 5758 5759 5758 5758 5756 5753 5749 5747 5750
5811 5808 5805 5803 5800 5798 5795 5792 5788 5784 5783 5780 5778 5777 5775 5775 5774 5771 5771 5769 5768 5767 5765 5764 5762 5761 5761 5760 5759 5759 5757 5756 5754 5754 5753 5753 5754 5754 5753 5750 5747 5743 5744
5809 5807 5804 5802 5798 5795 5793 5790 5786 5783 5781 5779 5776 5774 5772 5771 5770 5767 5767 5766 5764 5764 5762 5760 5759 5758 5757 5756 5754 5754 5752 5751 5751 5751 5749 5749 5749 5749 5749 5748 5746 5740 5736
5807 5804 5802 5799 5797 5794 5791 5788 5785 5780 5778 5777 5774 5773 5770 5768 5766 5764 5762 5761 5759 5758 5757 5756 5755 5753 5752 5751 5750 5749 5748 5746 5745 5743 5742 5741 5744 5743 5743 5742 5741 5739 5735
5804 5801 5798 5796 5793 5791 5788 5783 5780 5777 5775 5773 5770 5768 5766 5764 5762 5760 5758 5756 5754 5753 5752 5751 5750 5749 5748 5747 5745 5745 5742 5740 5739 5737 5736 5734 5734 5735 5736 5735 5734 5732 5730
5801 5798 5794 5790 5788 5785 5783 5780 5777 5774 5771 5769 5766 5763 5761 5759 5757 5756 5753 5752 5749 5748 5747 5746 5745 5744 5743 5741 5740 5738 5737 5735 5733 5731 5730 5728 5728 5726 5727 5727 5726 5725 5723
5795 5792 5789 5785 5782 5780 5777 5775 5773 5770 5768 5765 5762 5759 5756 5754 5752 5750 5749 5747 5745 5743 5743 5741 5740 5738 5737 5735 5734 5732 5730 5729 5728 5726 5724 5722 5721 5719 5720 5718 5718 5718 5718
5789 5787 5783 5780 5777 5775 5772 5769 5768 5766 5764 5760 5757 5754 5752 5749 5747 5745 5743 5741 5739 5738 5736 5736 5734 5733 5731 5729 5728 5726 5724 5722 5721 5719 5717 5716 5714 5713 5712 5711 5710 5710 5710
5783 5780 5777 5774 5771 5768 5766 5764 5762 5760 5758 5754 5751 5748 5747 5744 5742 5739 5737 5735 5733 5733 5730 5729 5728 5727 5725 5723 5721 5718 5717 5715 5714 5712 5711 5710 5707 5705 5704 5705 5704 5703 5703
5778 5776 5772 5769 5765 5763 5761 5758 5756 5754 5751 5748 5745 5743 5741 5738 5736 5733 5731 5729 5727 5725 5724 5722 5721 5720 5719 5715 5711 5710 5710 5708 5706 5705 5704 5703 5701 5698 5696 5694 5694 5693 5694
5774 5770 5767 5764 5761 5759 5757 5753 5751 5749 5745 5742 5739 5737 5734 5731 5729 5727 5724 5722 5720 5718 5717 5715 5714 5712 5710 5706 5704 5702 5702 5702 5700 5698 5696 5697 5697 5693 5693 5690 5687 5686 5685
5769 5766 5764 5761 5759 5756 5753 5750 5747 5743 5739 5735 5732 5730 5728 5725 5723 5720 5718 5716 5714 5712 5710 5708 5707 5705 5703 5699 5697 5695 5695 5695 5693 5691 5690 5688 5687 5687 5684 5685 5684 5683 5683
5765 5762 5760 5758 5755 5752 5748 5744 5740 5736 5732 5728 5726 5724 5721 5719 5716 5714 5712 5710 5707 5706 5704 5703 5700 5698 5696 5693 5690 5687 5689 5688 5686 5685 5683 5682 5680 5677 5675 5676 5676 5676 5677
5760 5757 5755 5752 5747 5744 5742 5737 5733 5729 5725 5722 5719 5717 5715 5712 5710 5708 5706 5704 5702 5700 5699 5697 5695 5692 5690 5685 5683 5680 5683 5682 5680 5679 5678 5674 5672 5669 5666 5668 5669 5668 5669
5753 5751 5748 5744 5740 5737 5734 5729 5726 5722 5720 5717 5713 5711 5708 5706 5704 5702 5699 5697 5695 5693 5691 5689 5688 5685 5683 5679 5675 5673 5674 5675 5674 5673 5673 5670 5665 5661 5659 5658 5660 5660 5659
5745 5743 5739 5736 5733 5730 5726 5722 5718 5716 5713 5710 5706 5703 5701 5700 5699 5695 5692 5690 5688 5685 5683 5681 5680 5680 5677 5674 5669 5666 5664 5664 5665 5665 5666 5663 5656 5653 5651 5652 5652 5651 5650
5736 5735 5731 5727 5725 5723 5719 5714 5711 5708 5705 5701 5698 5696 5694 5692 5691 5688 5686 5684 5681 5680 5678 5677 5675 5673 5672 5669 5663 5660 5657 5655 5655 5657 5654 5651 5647 5646 5647 5646 5645 5644 5647
5727 5726 5723 5719 5716 5714 5711 5707 5704 5700 5697 5693 5690 5689 5686 5685 5683 5681 5680 5678 5675 5673 5671 5670 5668 5667 5664 5662 5659 5656 5653 5649 5649 5649 5646 5642 5640 5639 5640 5641 5641 5641 5641
5718 5717 5715 5711 5708 5706 5703 5700 5696 5692 5688 5685 5682 5681 5679 5678 5675 5674 5672 5669 5667 5665 5661 5662 5660 5658 5656 5652 5647 5646 5646 5644 5642 5640 5640 5640 5639 5637 5636 5636 5636 5635 5634
5708 5707 5705 5702 5699 5697 5694 5690 5687 5684 5679 5676 5674 5673 5672 5670 5668 5666 5663 5659 5657 5654 5651 5648 5647 5648 5644 5640 5637 5635 5633 5631 5629 5629 5633 5633 5632 5631 5631 5630 5629 5628 5627